Regional Weather Roundup
Issued by NWS

Home | Current Version | Previous Version | Text Only | Print | Product List | Glossary Off
Versions: 1 2 3 4 5 6 7 8 9 10 11 12 13 14 15 16 17 18 19 20 21 22 23 24 25 26 27 28 29 30 31 32 33 34 35 36 37 38 39 40 41 42 43 44 45 46 47 48 49 50

000
ASUS45 KSLC 181910
RWRUT

UTAH REGIONAL WEATHER ROUNDUP
NATIONAL WEATHER SERVICE SALT LAKE CITY UT
100 PM MDT THU SEP 18 2014

UTZ001>011-023>025-182000-

NORTHERN UTAH

CITY           SKY/WX    TMP DP  RH WIND       PRES   REMARKS
HILL AFB       SUNNY     86  49  27 S17G24    29.92F
LOGAN          SUNNY     88  52  29 SW14      29.89F
OGDEN          SUNNY     89  47  23 S15G24    29.89F
PROVO AIRPORT  SUNNY     84  52  32 VRB5      29.94F
SALT LAKE CITY MOSUNNY   88  46  23 S21G26    29.87F
VERNAL         SUNNY     76  46  34 CALM      30.03F
WENDOVER       MOSUNNY   88  48  25 SE18      29.84F
HEBER CITY     SUNNY     81  45  28 CALM      29.99F
WEST JORDAN    SUNNY     84  46  26 SE15      29.93F

$$

UTZ012>022-026-027-182000-

SOUTHERN UTAH

CITY           SKY/WX    TMP DP  RH WIND       PRES   REMARKS
BRYCE CANYON   SUNNY     70  48  45 S14G23    30.18F
CEDAR CITY     SUNNY     79  50  36 SW12G18   30.01F
MILFORD        SUNNY     84  50  30 S14G23    29.96
MOAB/CYNLANDS  SUNNY     84  45  25 SE8       29.95F
PRICE          SUNNY     80  45  28 SE9       30.07F
ST GEORGE      CLEAR     88  54  31 N7        29.86F

$$

REGIONAL REPORTS     COLORADO/ARIZONA

CITY           SKY/WX    TMP DP  RH WIND       PRES   REMARKS
CRAIG, CO      SUNNY     81  42  25 W7        30.07F
GRAND JUNCTION SUNNY     81  41  24 CALM      30.00F
RIFLE          SUNNY     77  39  25 CALM      30.04F
MONTROSE       SUNNY     80  43  26 N5        30.06F
CORTEZ         SUNNY     79  48  33 S14       30.08F
PAGE, AZ       SUNNY     84  51  31 VRB7      29.96F
GRAND CANYON   CLOUDY    72  48  42 CALM      30.12F
KINGMAN        MOSUNNY   86  59  39 SW8       29.92F
FLAGSTAFF      MOSUNNY   71  50  47 VRB6      30.15F

$$

REGIONAL REPORTS    NEVADA/IDAHO/WYOMING

CITY           SKY/WX    TMP DP  RH WIND       PRES   REMARKS
LAS VEGAS, NV  MOSUNNY   96  37  12 S10       29.74F HX  91
ELY            MOSUNNY   78  48  34 S16G28    30.01F
ELKO           TSTM      70  58  65 S9G22     29.89S
POCATELLO, ID  MOSUNNY   82  47  29 W18       29.88F
BURLEY         MOSUNNY   78  48  34 W16G24    29.88S
EVANSTON, WY   SUNNY    N/A N/A N/A S14G26    30.09F
ROCK SPRINGS   MOSUNNY   80  33  18 W12G17    30.07F

$$


USA.gov is the U.S. government's official web portal to all federal, state and local government web resources and services.